This is the latest recevied weather packets stored in our database for station/object K0PFX-8. If no packets are shown the sender has not sent any weather packets the latest 10 day(s).
| Time | Temp. | Humidity | Pressure | Rain* | Wind** | Luminosity | Snow |
|---|---|---|---|---|---|---|---|
| 1777889998 | 15.56° C | 65% | 1010 hPa | 0 mm | 1.79 m/s, 201° | - | - |
| 1777889097 | 15.56° C | 67% | 1010.2 hPa | 0 mm | 1.79 m/s, 226° | - | - |
| 1777888198 | 15.56° C | 70% | 1010 hPa | 0 mm | 0 m/s | - | - |
| 1777887297 | 15.56° C | 68% | 1009.7 hPa | 0 mm | 1.34 m/s, 194° | - | - |
| 1777886398 | 15.56° C | 73% | 1009.7 hPa | 0 mm | 0 m/s | - | - |
| 1777885498 | 15.56° C | 73% | 1009.8 hPa | 0 mm | 0 m/s | - | - |
| 1777884599 | 15.56° C | 73% | 1010 hPa | 0 mm | 0 m/s | - | - |
| 1777882799 | 16.11° C | 72% | 1010.1 hPa | 0 mm | 0 m/s | - | - |
| 1777881898 | 16.67° C | 69% | 1009.9 hPa | 0 mm | 0 m/s | - | - |
| 1777881000 | 16.67° C | 68% | 1009.9 hPa | 0 mm | 0 m/s | - | - |
| 1777880099 | 17.22° C | 64% | 1009.8 hPa | 0 mm | 0 m/s | - | - |
| 1777879200 | 17.78° C | 62% | 1010 hPa | 0 mm | 0 m/s | - | - |
| 1777878300 | 18.33° C | 60% | 1010.1 hPa | 0 mm | 0 m/s | - | - |
| 1777877402 | 18.33° C | 57% | 1010.3 hPa | 0 mm | 0 m/s | - | - |
| 1777876501 | 18.89° C | 55% | 1010.4 hPa | 0 mm | 0 m/s | - | - |
| 1777875602 | 18.89° C | 52% | 1010.6 hPa | 0 mm | 0 m/s | - | - |
| 1777874702 | 18.89° C | 48% | 1010.7 hPa | 0 mm | 1.79 m/s, 15° | - | - |
| 1777873803 | 18.89° C | 47% | 1010.6 hPa | 0 mm | 0 m/s | - | - |
| 1777872902 | 18.89° C | 46% | 1010 hPa | 0 mm | 2.24 m/s, 243° | - | - |
| 1777872004 | 18.89° C | 46% | 1009.7 hPa | 0 mm | 2.68 m/s, 255° | - | - |
| 1777871103 | 18.89° C | 46% | 1009.7 hPa | 0 mm | 3.13 m/s, 229° | - | - |
| 1777870205 | 19.44° C | 45% | 1009.3 hPa | 0 mm | 1.34 m/s, 160° | - | - |
| 1777869304 | 19.44° C | 44% | 1009.5 hPa | 0 mm | 3.13 m/s, 215° | - | - |
| 1777868406 | 20° C | 43% | 1010 hPa | 0 mm | 3.13 m/s, 236° | - | - |
| 1777867505 | 20° C | 45% | 1010.3 hPa | 0 mm | 3.13 m/s, 249° | - | - |
* Rain latest hour (hover to see other rain measurements)
** Current wind speed in m/s (hover to see current wind gust speed)